User: anonymous   Login
Location: Emory University Observatory
(33.7903°N, 84.3267°W)
Time: 12:20:24
(UTC-05:00)
Language:

Envisat - Orbit

View from above orbital plane
View from above orbital plane
View from above satellite
View from above satellite

Ground track
Ground track

The orbit data is extracted from the following two-line orbital elements,

1 27386U 02009A   17344.78714168 +.00000011 +00000-0 +17411-4 0  9998
2 27386 098.2099 022.4858 0001515 084.2477 275.8877 14.37910753826457
Epoch (UTC): 10 December 2017 18:53:29
Eccentricity: 0.0001515
inclination: 98.2099°
perigee height: 764 km
apogee height: 766 km
right ascension of ascending node: 22.4858°
argument of perigee: 84.2477°
revolutions per day: 14.37910753
mean anomaly at epoch: 275.8877°
orbit number at epoch: 82645

The dashed part of the orbit path shows where the satellite is in the earth's shadow,  

DLR